Time,TemperatureF,DewpointF,PressureIn,WindDirection,WindDirectionDegrees,WindSpeedMPH,WindSpeedGustMPH,Humidity,HourlyPrecipIn,Conditions,Clouds,dailyrainin,SoftwareType,DateUTC
2013-04-03 00:00:00,53.8,50.4,-100.00,SE,135,0.0,7.0,88,0.08,,,0.47,meteohub,2013-04-03 05:00:00,
2013-04-03 00:02:00,53.8,50.4,-100.00,NNE,23,3.0,7.0,88,0.08,,,0.47,meteohub,2013-04-03 05:02:00,
2013-04-03 00:04:00,54.0,50.5,-100.00,NE,45,0.0,7.0,88,0.08,,,0.47,meteohub,2013-04-03 05:04:00,
2013-04-03 00:06:00,54.0,50.5,-100.00,SE,135,1.0,7.0,88,0.10,,,0.49,meteohub,2013-04-03 05:06:00,
2013-04-03 00:08:00,54.1,50.7,-100.00,NNE,23,0.0,7.0,88,0.10,,,0.49,meteohub,2013-04-03 05:08:00,
2013-04-03 00:10:00,54.1,50.7,-100.00,NNE,23,0.0,4.0,88,0.12,,,0.51,meteohub,2013-04-03 05:10:00,
2013-04-03 00:12:00,54.1,50.7,-100.00,NE,45,0.0,4.0,88,0.12,,,0.51,meteohub,2013-04-03 05:12:00,
2013-04-03 00:14:00,54.1,50.7,-100.00,WNW,293,0.0,4.0,88,0.12,,,0.51,meteohub,2013-04-03 05:14:00,
2013-04-03 00:16:00,54.1,50.7,-100.00,NE,45,0.0,3.0,88,0.08,,,0.51,meteohub,2013-04-03 05:16:00,
2013-04-03 00:18:00,54.3,50.9,-100.00,NE,45,0.0,3.0,88,0.08,,,0.51,meteohub,2013-04-03 05:18:00,
2013-04-03 00:22:00,54.3,50.9,-100.00,ENE,68,2.0,2.0,88,0.08,,,0.51,meteohub,2013-04-03 05:22:00,
2013-04-03 00:24:00,54.3,50.9,-100.00,NNE,23,1.0,1.0,88,0.08,,,0.51,meteohub,2013-04-03 05:24:00,
2013-04-03 00:26:00,54.3,50.9,-100.00,NW,315,0.0,2.0,88,0.06,,,0.51,meteohub,2013-04-03 05:26:00,
2013-04-03 00:30:00,54.3,50.9,-100.00,NE,45,4.0,4.0,88,0.06,,,0.51,meteohub,2013-04-03 05:30:00,
2013-04-03 00:32:00,54.3,50.9,-100.00,NE,45,3.0,3.0,88,0.06,,,0.51,meteohub,2013-04-03 05:32:00,
2013-04-03 00:37:00,54.3,50.9,-100.00,NNE,23,1.0,4.0,88,0.04,,,0.51,meteohub,2013-04-03 05:37:00,
2013-04-03 00:39:00,54.3,50.9,-100.00,SE,135,4.0,4.0,88,0.04,,,0.51,meteohub,2013-04-03 05:39:00,
2013-04-03 00:41:00,54.3,50.9,-100.00,NE,45,2.0,4.0,88,0.04,,,0.51,meteohub,2013-04-03 05:41:00,
2013-04-03 00:43:00,54.3,50.9,-100.00,NE,45,0.0,4.0,88,0.04,,,0.51,meteohub,2013-04-03 05:43:00,
2013-04-03 00:45:00,54.3,50.9,-100.00,West,270,0.0,4.0,88,0.04,,,0.51,meteohub,2013-04-03 05:45:00,
2013-04-03 00:47:00,54.3,50.9,-100.00,NNE,23,1.0,4.0,88,0.04,,,0.51,meteohub,2013-04-03 05:47:00,
2013-04-03 00:51:00,54.3,50.9,-100.00,NNE,23,0.0,4.0,88,0.04,,,0.51,meteohub,2013-04-03 05:51:00,
2013-04-03 00:53:00,54.3,50.9,-100.00,NE,45,0.0,4.0,88,0.04,,,0.51,meteohub,2013-04-03 05:53:00,
2013-04-03 00:57:00,54.3,51.1,-100.00,NE,45,1.0,2.0,89,0.04,,,0.51,meteohub,2013-04-03 05:57:00,
2013-04-03 01:01:00,54.5,51.3,-100.00,NE,45,2.0,5.0,89,0.02,,,0.51,meteohub,2013-04-03 06:01:00,
2013-04-03 01:05:00,54.5,51.3,-100.00,NE,45,2.0,5.0,89,0.02,,,0.51,meteohub,2013-04-03 06:05:00,
2013-04-03 01:09:00,54.5,51.3,-100.00,NE,45,0.0,5.0,89,0.02,,,0.51,meteohub,2013-04-03 06:09:00,
2013-04-03 01:11:00,54.5,51.3,-100.00,ENE,68,0.0,5.0,89,0.00,,,0.51,meteohub,2013-04-03 06:11:00,
2013-04-03 01:15:00,54.5,51.3,-100.00,NNE,23,0.0,3.0,89,0.00,,,0.51,meteohub,2013-04-03 06:15:00,
2013-04-03 01:17:00,54.5,51.3,-100.00,NE,45,0.0,3.0,89,0.00,,,0.51,meteohub,2013-04-03 06:17:00,
2013-04-03 01:21:00,54.5,51.3,-100.00,NE,45,0.0,3.0,89,0.00,,,0.51,meteohub,2013-04-03 06:21:00,
2013-04-03 01:23:00,54.5,51.3,-100.00,ENE,68,0.0,3.0,89,0.00,,,0.51,meteohub,2013-04-03 06:23:00,
2013-04-03 01:27:00,54.5,51.3,-100.00,NNE,23,3.0,3.0,89,0.00,,,0.51,meteohub,2013-04-03 06:27:00,
2013-04-03 01:29:00,54.5,51.3,-100.00,NE,45,0.0,1.0,89,0.00,,,0.51,meteohub,2013-04-03 06:29:00,
2013-04-03 01:31:00,54.5,51.3,-100.00,NE,45,0.0,3.0,89,0.00,,,0.51,meteohub,2013-04-03 06:31:00,
2013-04-03 01:33:00,54.5,51.3,-100.00,North,0,2.0,3.0,89,0.00,,,0.51,meteohub,2013-04-03 06:33:00,
2013-04-03 01:35:00,54.5,51.3,-100.00,ESE,113,0.0,3.0,89,0.00,,,0.51,meteohub,2013-04-03 06:35:00,
2013-04-03 01:37:00,54.5,51.3,-100.00,ENE,68,1.0,3.0,89,0.00,,,0.51,meteohub,2013-04-03 06:37:00,
2013-04-03 01:39:00,54.5,51.3,-100.00,NE,45,0.0,3.0,89,0.00,,,0.51,meteohub,2013-04-03 06:39:00,
2013-04-03 01:41:00,54.5,51.3,-100.00,NE,45,0.0,3.0,89,0.00,,,0.51,meteohub,2013-04-03 06:41:00,
2013-04-03 01:47:00,54.5,51.3,-100.00,SE,135,0.0,2.0,89,0.00,,,0.51,meteohub,2013-04-03 06:47:00,
2013-04-03 01:52:00,54.5,51.3,-100.00,NE,45,2.0,2.0,89,0.00,,,0.51,meteohub,2013-04-03 06:52:00,
2013-04-03 01:54:00,54.5,51.3,-100.00,NE,45,2.0,2.0,89,0.00,,,0.51,meteohub,2013-04-03 06:54:00,
2013-04-03 01:58:00,54.3,51.1,-100.00,NE,45,1.0,2.0,89,0.00,,,0.51,meteohub,2013-04-03 06:58:00,
2013-04-03 02:00:00,54.3,51.1,-100.00,ENE,68,7.0,7.0,89,0.00,,,0.51,meteohub,2013-04-03 07:00:00,
2013-04-03 02:02:00,54.3,51.1,-100.00,ENE,68,5.0,6.0,89,0.00,,,0.51,meteohub,2013-04-03 07:02:00,
2013-04-03 02:06:00,54.3,51.1,-100.00,NE,45,5.0,7.0,89,0.00,,,0.51,meteohub,2013-04-03 07:06:00,
2013-04-03 02:08:00,54.1,50.9,-100.00,NE,45,5.0,7.0,89,0.00,,,0.51,meteohub,2013-04-03 07:08:00,
2013-04-03 02:12:00,54.1,50.9,-100.00,North,0,5.0,7.0,89,0.00,,,0.51,meteohub,2013-04-03 07:12:00,
2013-04-03 02:16:00,54.1,50.9,-100.00,NNE,23,7.0,7.0,89,0.00,,,0.51,meteohub,2013-04-03 07:16:00,
2013-04-03 02:18:00,54.0,50.7,-100.00,NNE,23,7.0,7.0,89,0.00,,,0.51,meteohub,2013-04-03 07:18:00,
2013-04-03 02:22:00,53.8,50.5,-100.00,North,0,2.0,7.0,89,0.00,,,0.51,meteohub,2013-04-03 07:22:00,
2013-04-03 02:24:00,53.8,50.5,-100.00,NE,45,6.0,7.0,89,0.00,,,0.51,meteohub,2013-04-03 07:24:00,
2013-04-03 02:26:00,53.8,50.5,-100.00,NNE,23,2.0,7.0,89,0.00,,,0.51,meteohub,2013-04-03 07:26:00,
2013-04-03 02:32:00,53.8,50.5,-100.00,NNE,23,3.0,7.0,89,0.00,,,0.51,meteohub,2013-04-03 07:32:00,
2013-04-03 02:34:00,53.6,50.4,-100.00,ENE,68,3.0,7.0,89,0.00,,,0.51,meteohub,2013-04-03 07:34:00,
2013-04-03 02:38:00,53.4,50.2,-100.00,NE,45,1.0,6.0,89,0.00,,,0.51,meteohub,2013-04-03 07:38:00,
2013-04-03 02:40:00,53.4,50.2,-100.00,NNE,23,0.0,6.0,89,0.00,,,0.51,meteohub,2013-04-03 07:40:00,
2013-04-03 02:44:00,53.6,50.4,-100.00,West,270,2.0,6.0,89,0.00,,,0.51,meteohub,2013-04-03 07:44:00,
2013-04-03 02:47:00,53.4,50.2,-100.00,NNE,23,6.0,6.0,89,0.00,,,0.51,meteohub,2013-04-03 07:47:00,
2013-04-03 02:53:00,53.6,50.4,-100.00,NNE,23,0.0,6.0,89,0.00,,,0.51,meteohub,2013-04-03 07:53:00,
2013-04-03 02:55:00,53.8,50.5,-100.00,NE,45,0.0,6.0,89,0.00,,,0.51,meteohub,2013-04-03 07:55:00,
2013-04-03 02:57:00,53.8,50.5,-100.00,NNE,23,0.0,6.0,89,0.00,,,0.51,meteohub,2013-04-03 07:57:00,
2013-04-03 02:59:00,53.8,50.5,-100.00,NNE,23,0.0,6.0,89,0.00,,,0.51,meteohub,2013-04-03 07:59:00,
2013-04-03 03:03:00,53.8,50.5,-100.00,NE,45,1.0,6.0,89,0.00,,,0.51,meteohub,2013-04-03 08:03:00,
2013-04-03 03:07:00,53.8,50.9,-100.00,NNE,23,2.0,2.0,90,0.00,,,0.51,meteohub,2013-04-03 08:07:00,
2013-04-03 03:09:00,53.8,50.9,-100.00,NNW,338,0.0,1.0,90,0.00,,,0.51,meteohub,2013-04-03 08:09:00,
2013-04-03 03:11:00,53.8,50.9,-100.00,NE,45,0.0,2.0,90,0.00,,,0.51,meteohub,2013-04-03 08:11:00,
2013-04-03 03:15:00,53.8,50.5,-100.00,NW,315,0.0,2.0,89,0.00,,,0.51,meteohub,2013-04-03 08:15:00,
2013-04-03 03:17:00,53.8,50.5,-100.00,NW,315,0.0,2.0,89,0.00,,,0.51,meteohub,2013-04-03 08:17:00,
2013-04-03 03:22:00,53.8,50.9,-100.00,West,270,0.0,2.0,90,0.00,,,0.51,meteohub,2013-04-03 08:22:00,
2013-04-03 03:28:00,54.0,51.1,-100.00,NNW,338,0.0,2.0,90,0.00,,,0.51,meteohub,2013-04-03 08:28:00,
2013-04-03 03:32:00,54.0,51.1,-100.00,NE,45,0.0,0.0,90,0.00,,,0.51,meteohub,2013-04-03 08:32:00,
2013-04-03 03:34:00,54.0,51.1,-100.00,East,90,0.0,0.0,90,0.00,,,0.51,meteohub,2013-04-03 08:34:00,
2013-04-03 03:36:00,54.1,51.3,-100.00,NNE,23,0.0,0.0,90,0.00,,,0.51,meteohub,2013-04-03 08:36:00,
2013-04-03 03:38:00,54.3,51.4,-100.00,North,0,3.0,0.0,90,0.00,,,0.51,meteohub,2013-04-03 08:38:00,
2013-04-03 03:40:00,54.3,51.4,-100.00,North,0,3.0,3.0,90,0.00,,,0.51,meteohub,2013-04-03 08:40:00,
2013-04-03 03:46:00,54.3,51.4,-100.00,NE,45,0.0,3.0,90,0.00,,,0.51,meteohub,2013-04-03 08:46:00,
2013-04-03 03:48:00,54.5,51.6,-100.00,West,270,0.0,3.0,90,0.00,,,0.51,meteohub,2013-04-03 08:48:00,
2013-04-03 03:50:00,54.5,51.6,-100.00,North,0,0.0,3.0,90,0.00,,,0.51,meteohub,2013-04-03 08:50:00,
2013-04-03 03:57:00,54.7,51.8,-100.00,West,270,1.0,3.0,90,0.00,,,0.51,meteohub,2013-04-03 08:57:00,
2013-04-03 03:59:00,54.7,51.8,-100.00,West,270,1.0,3.0,90,0.00,,,0.51,meteohub,2013-04-03 08:59:00,
2013-04-03 04:03:00,54.9,52.0,-100.00,NE,45,1.0,1.0,90,0.00,,,0.51,meteohub,2013-04-03 09:03:00,
2013-04-03 04:05:00,54.9,52.0,-100.00,WNW,293,1.0,1.0,90,0.00,,,0.51,meteohub,2013-04-03 09:05:00,
2013-04-03 04:09:00,55.0,52.2,-100.00,NNW,338,0.0,1.0,90,0.00,,,0.51,meteohub,2013-04-03 09:09:00,
2013-04-03 04:13:00,55.0,52.2,-100.00,WSW,248,2.0,2.0,90,0.00,,,0.51,meteohub,2013-04-03 09:13:00,
2013-04-03 04:15:00,55.0,52.2,-100.00,WNW,293,0.0,2.0,90,0.00,,,0.51,meteohub,2013-04-03 09:15:00,
2013-04-03 04:19:00,55.2,52.3,-100.00,WSW,248,0.0,2.0,90,0.00,,,0.51,meteohub,2013-04-03 09:19:00,
2013-04-03 04:21:00,55.2,52.3,-100.00,North,0,0.0,2.0,90,0.00,,,0.51,meteohub,2013-04-03 09:21:00,
2013-04-03 04:23:00,55.2,52.3,-100.00,West,270,0.0,2.0,90,0.00,,,0.51,meteohub,2013-04-03 09:23:00,
2013-04-03 04:27:00,55.2,52.3,-100.00,NE,45,1.0,2.0,90,0.00,,,0.51,meteohub,2013-04-03 09:27:00,
2013-04-03 04:29:00,55.2,52.3,-100.00,North,0,0.0,2.0,90,0.00,,,0.51,meteohub,2013-04-03 09:29:00,
2013-04-03 04:33:00,55.2,52.3,-100.00,WNW,293,0.0,3.0,90,0.00,,,0.51,meteohub,2013-04-03 09:33:00,
2013-04-03 04:35:00,55.2,52.3,-100.00,NE,45,2.0,3.0,90,0.00,,,0.51,meteohub,2013-04-03 09:35:00,
2013-04-03 04:41:00,55.0,52.2,-100.00,West,270,2.0,3.0,90,0.00,,,0.51,meteohub,2013-04-03 09:41:00,
2013-04-03 04:43:00,55.0,52.2,-100.00,WNW,293,1.0,3.0,90,0.00,,,0.51,meteohub,2013-04-03 09:43:00,
2013-04-03 04:45:00,54.9,52.0,-100.00,NE,45,1.0,2.0,90,0.00,,,0.51,meteohub,2013-04-03 09:45:00,
2013-04-03 04:47:00,54.9,52.0,-100.00,NE,45,1.0,2.0,90,0.00,,,0.51,meteohub,2013-04-03 09:47:00,
2013-04-03 04:48:00,54.9,52.0,-100.00,WNW,293,2.0,2.0,90,0.00,,,0.51,meteohub,2013-04-03 09:48:00,
2013-04-03 04:52:00,54.7,51.4,-100.00,WNW,293,5.0,5.0,89,0.00,,,0.51,meteohub,2013-04-03 09:52:00,
2013-04-03 04:58:00,54.5,51.3,-100.00,West,270,2.0,5.0,89,0.00,,,0.51,meteohub,2013-04-03 09:58:00,
2013-04-03 05:00:00,54.3,51.1,-100.00,West,270,4.0,5.0,89,0.00,,,0.51,meteohub,2013-04-03 10:00:00,
2013-04-03 05:02:00,54.3,51.1,-100.00,West,270,4.0,5.0,89,0.00,,,0.51,meteohub,2013-04-03 10:02:00,
2013-04-03 05:06:00,54.1,50.9,-100.00,NNE,23,0.0,5.0,89,0.00,,,0.51,meteohub,2013-04-03 10:06:00,
2013-04-03 05:10:00,54.0,50.7,-100.00,West,270,3.0,4.0,89,0.00,,,0.51,meteohub,2013-04-03 10:10:00,
2013-04-03 05:14:00,53.6,50.2,-100.00,WNW,293,4.0,4.0,88,0.00,,,0.51,meteohub,2013-04-03 10:14:00,
2013-04-03 05:16:00,53.4,50.0,-100.00,WNW,293,4.0,4.0,88,0.00,,,0.51,meteohub,2013-04-03 10:16:00,
2013-04-03 05:17:00,53.4,50.0,-100.00,WNW,293,4.0,4.0,88,0.00,,,0.51,meteohub,2013-04-03 10:17:00,
2013-04-03 05:22:00,53.1,49.6,-100.00,West,270,4.0,4.0,88,0.00,,,0.51,meteohub,2013-04-03 10:22:00,
2013-04-03 05:28:00,52.5,49.1,-100.00,NNW,338,3.0,7.0,88,0.00,,,0.51,meteohub,2013-04-03 10:28:00,
2013-04-03 05:30:00,52.3,48.9,-100.00,NNW,338,4.0,7.0,88,0.00,,,0.51,meteohub,2013-04-03 10:30:00,
2013-04-03 05:34:00,52.2,48.4,-100.00,West,270,4.0,7.0,87,0.00,,,0.51,meteohub,2013-04-03 10:34:00,
2013-04-03 05:36:00,52.0,48.2,-100.00,WSW,248,4.0,11.0,87,0.00,,,0.51,meteohub,2013-04-03 10:36:00,
2013-04-03 05:38:00,51.6,47.8,-100.00,NW,315,2.0,11.0,87,0.00,,,0.51,meteohub,2013-04-03 10:38:00,
2013-04-03 05:42:00,51.6,47.8,-100.00,NNE,23,4.0,11.0,87,0.00,,,0.51,meteohub,2013-04-03 10:42:00,
2013-04-03 05:44:00,51.4,47.7,-100.00,NW,315,0.0,11.0,87,0.00,,,0.51,meteohub,2013-04-03 10:44:00,
2013-04-03 05:50:00,51.1,47.3,-100.00,WNW,293,5.0,8.0,87,0.00,,,0.51,meteohub,2013-04-03 10:50:00,
2013-04-03 05:52:00,51.1,47.3,-100.00,West,270,3.0,8.0,87,0.00,,,0.51,meteohub,2013-04-03 10:52:00,
2013-04-03 05:54:00,50.9,47.1,-100.00,West,270,5.0,8.0,87,0.00,,,0.51,meteohub,2013-04-03 10:54:00,
2013-04-03 05:56:00,50.7,46.9,-100.00,West,270,3.0,8.0,87,0.00,,,0.51,meteohub,2013-04-03 10:56:00,
2013-04-03 05:58:00,50.7,46.9,-100.00,West,270,5.0,8.0,87,0.00,,,0.51,meteohub,2013-04-03 10:58:00,
2013-04-03 06:02:00,50.5,46.8,-100.00,WNW,293,3.0,8.0,87,0.00,,,0.51,meteohub,2013-04-03 11:02:00,
2013-04-03 06:04:00,50.4,46.6,-100.00,West,270,3.0,8.0,87,0.00,,,0.51,meteohub,2013-04-03 11:04:00,
2013-04-03 06:07:00,50.2,46.4,-100.00,West,270,5.0,5.0,87,0.00,,,0.51,meteohub,2013-04-03 11:07:00,
2013-04-03 06:09:00,50.2,46.4,-100.00,WNW,293,4.0,5.0,87,0.00,,,0.51,meteohub,2013-04-03 11:09:00,
2013-04-03 06:15:00,50.2,46.4,-100.00,WNW,293,0.0,5.0,87,0.00,,,0.51,meteohub,2013-04-03 11:15:00,
2013-04-03 06:17:00,50.2,46.4,-100.00,WNW,293,0.0,5.0,87,0.00,,,0.51,meteohub,2013-04-03 11:17:00,
2013-04-03 06:23:00,49.8,46.0,-100.00,ENE,68,1.0,5.0,87,0.00,,,0.51,meteohub,2013-04-03 11:23:00,
2013-04-03 06:25:00,49.8,46.0,-100.00,ENE,68,1.0,6.0,87,0.00,,,0.51,meteohub,2013-04-03 11:25:00,
2013-04-03 06:27:00,49.6,45.9,-100.00,WNW,293,4.0,6.0,87,0.00,,,0.51,meteohub,2013-04-03 11:27:00,
2013-04-03 06:34:00,49.6,45.9,-100.00,WSW,248,2.0,6.0,87,0.00,,,0.51,meteohub,2013-04-03 11:34:00,
2013-04-03 06:40:00,49.3,45.5,-100.00,West,270,2.0,6.0,87,0.00,,,0.51,meteohub,2013-04-03 11:40:00,
2013-04-03 06:42:00,49.3,45.5,-100.00,NE,45,1.0,4.0,87,0.00,,,0.51,meteohub,2013-04-03 11:42:00,
2013-04-03 06:46:00,49.3,45.5,-100.00,WNW,293,3.0,3.0,87,0.00,,,0.51,meteohub,2013-04-03 11:46:00,
2013-04-03 06:48:00,49.3,45.5,-100.00,NE,45,0.0,2.0,87,0.00,,,0.51,meteohub,2013-04-03 11:48:00,
2013-04-03 06:50:00,49.3,45.5,-100.00,NE,45,0.0,3.0,87,0.00,,,0.51,meteohub,2013-04-03 11:50:00,
2013-04-03 06:54:00,49.3,45.5,-100.00,North,0,4.0,4.0,87,0.00,,,0.51,meteohub,2013-04-03 11:54:00,
2013-04-03 06:56:00,49.1,45.3,-100.00,NE,45,6.0,6.0,87,0.00,,,0.51,meteohub,2013-04-03 11:56:00,
2013-04-03 06:58:00,48.9,45.1,-100.00,NNE,23,1.0,3.0,87,0.00,,,0.51,meteohub,2013-04-03 11:58:00,
2013-04-03 07:02:00,48.9,45.1,-100.00,West,270,5.0,6.0,87,0.00,,,0.51,meteohub,2013-04-03 12:02:00,
2013-04-03 07:04:00,48.7,45.0,-100.00,West,270,2.0,6.0,87,0.00,,,0.51,meteohub,2013-04-03 12:04:00,
2013-04-03 07:10:00,48.7,45.0,-100.00,WSW,248,1.0,6.0,87,0.00,,,0.51,meteohub,2013-04-03 12:10:00,
2013-04-03 07:12:00,48.7,45.0,-100.00,NE,45,2.0,6.0,87,0.00,,,0.51,meteohub,2013-04-03 12:12:00,
2013-04-03 07:14:00,48.7,45.0,-100.00,NE,45,2.0,6.0,87,0.00,,,0.51,meteohub,2013-04-03 12:14:00,
2013-04-03 07:16:00,48.6,44.8,-100.00,North,0,0.0,5.0,87,0.00,,,0.51,meteohub,2013-04-03 12:16:00,
2013-04-03 07:18:00,48.7,45.0,-100.00,NNE,23,0.0,5.0,87,0.00,,,0.51,meteohub,2013-04-03 12:18:00,
2013-04-03 07:22:00,48.6,44.8,-100.00,ENE,68,2.0,2.0,87,0.00,,,0.51,meteohub,2013-04-03 12:22:00,
2013-04-03 07:28:00,48.6,44.8,-100.00,West,270,2.0,4.0,87,0.00,,,0.51,meteohub,2013-04-03 12:28:00,
2013-04-03 07:30:00,48.4,44.8,-100.00,WNW,293,0.0,4.0,87,0.00,,,0.51,meteohub,2013-04-03 12:30:00,
2013-04-03 07:35:00,48.4,44.8,-100.00,West,270,0.0,4.0,87,0.00,,,0.51,meteohub,2013-04-03 12:35:00,
2013-04-03 07:37:00,48.4,45.0,-100.00,NNE,23,0.0,4.0,88,0.00,,,0.51,meteohub,2013-04-03 12:37:00,
2013-04-03 07:43:00,48.6,45.1,-100.00,West,270,4.0,4.0,88,0.00,,,0.51,meteohub,2013-04-03 12:43:00,
2013-04-03 07:45:00,48.6,45.1,-100.00,NW,315,2.0,4.0,88,0.00,,,0.51,meteohub,2013-04-03 12:45:00,
2013-04-03 07:47:00,48.6,45.1,-100.00,NW,315,2.0,4.0,88,0.00,,,0.51,meteohub,2013-04-03 12:47:00,
2013-04-03 07:49:00,48.6,45.1,-100.00,WNW,293,2.0,4.0,88,0.00,,,0.51,meteohub,2013-04-03 12:49:00,
2013-04-03 07:55:00,48.7,45.3,-100.00,NW,315,2.0,4.0,88,0.00,,,0.51,meteohub,2013-04-03 12:55:00,
2013-04-03 07:57:00,48.7,45.3,-100.00,NE,45,1.0,4.0,88,0.00,,,0.51,meteohub,2013-04-03 12:57:00,
2013-04-03 07:59:00,48.7,45.3,-100.00,NE,45,2.0,4.0,88,0.00,,,0.51,meteohub,2013-04-03 12:59:00,
2013-04-03 08:01:00,48.7,45.3,-100.00,NE,45,2.0,2.0,88,0.00,,,0.51,meteohub,2013-04-03 13:01:00,
2013-04-03 08:03:00,48.9,45.5,-100.00,NNE,23,2.0,2.0,88,0.00,,,0.51,meteohub,2013-04-03 13:03:00,
2013-04-03 08:07:00,48.9,45.5,-100.00,NNE,23,0.0,2.0,88,0.00,,,0.51,meteohub,2013-04-03 13:07:00,
2013-04-03 08:09:00,49.1,45.7,-100.00,West,270,2.0,2.0,88,0.00,,,0.51,meteohub,2013-04-03 13:09:00,
2013-04-03 08:15:00,49.3,45.9,-100.00,NNE,23,0.0,2.0,88,0.00,,,0.51,meteohub,2013-04-03 13:15:00,
2013-04-03 08:17:00,49.3,45.9,-100.00,West,270,1.0,2.0,88,0.00,,,0.51,meteohub,2013-04-03 13:17:00,
2013-04-03 08:22:00,49.3,45.5,-100.00,WNW,293,4.0,4.0,87,0.00,,,0.51,meteohub,2013-04-03 13:22:00,
2013-04-03 08:24:00,49.3,45.5,-100.00,WNW,293,4.0,4.0,87,0.00,,,0.51,meteohub,2013-04-03 13:24:00,
2013-04-03 08:26:00,49.3,45.5,-100.00,West,270,3.0,4.0,87,0.00,,,0.51,meteohub,2013-04-03 13:26:00,
2013-04-03 08:30:00,49.3,45.5,-100.00,NNW,338,0.0,4.0,87,0.00,,,0.51,meteohub,2013-04-03 13:30:00,
2013-04-03 08:36:00,49.3,45.5,-100.00,West,270,2.0,4.0,87,0.00,,,0.51,meteohub,2013-04-03 13:36:00,
2013-04-03 08:38:00,49.3,45.5,-100.00,West,270,1.0,4.0,87,0.00,,,0.51,meteohub,2013-04-03 13:38:00,
2013-04-03 08:42:00,49.3,45.5,-100.00,West,270,2.0,4.0,87,0.00,,,0.51,meteohub,2013-04-03 13:42:00,
2013-04-03 08:44:00,49.3,45.5,-100.00,West,270,5.0,5.0,87,0.00,,,0.51,meteohub,2013-04-03 13:44:00,
2013-04-03 08:46:00,49.3,45.5,-100.00,North,0,4.0,5.0,87,0.00,,,0.51,meteohub,2013-04-03 13:46:00,
2013-04-03 08:48:00,49.1,45.3,-100.00,ENE,68,4.0,5.0,87,0.00,,,0.51,meteohub,2013-04-03 13:48:00,
2013-04-03 08:50:00,49.1,45.3,-100.00,ENE,68,5.0,5.0,87,0.00,,,0.51,meteohub,2013-04-03 13:50:00,
2013-04-03 08:54:00,48.9,45.1,-100.00,NE,45,11.0,11.0,87,0.00,,,0.51,meteohub,2013-04-03 13:54:00,
2013-04-03 08:56:00,48.9,45.1,-100.00,NE,45,3.0,5.0,87,0.02,,,0.53,meteohub,2013-04-03 13:56:00,
2013-04-03 08:58:00,48.7,45.3,-100.00,West,270,1.0,5.0,88,0.02,,,0.53,meteohub,2013-04-03 13:58:00,
2013-04-03 09:02:00,48.7,45.3,-100.00,WNW,293,10.0,11.0,88,0.04,,,0.55,meteohub,2013-04-03 14:02:00,
2013-04-03 09:04:00,48.6,45.1,-100.00,West,270,2.0,11.0,88,0.04,,,0.55,meteohub,2013-04-03 14:04:00,
2013-04-03 09:10:00,48.7,45.3,-100.00,North,0,0.0,11.0,88,0.08,,,0.59,meteohub,2013-04-03 14:10:00,
2013-04-03 09:14:00,48.7,45.3,-100.00,ENE,68,0.0,11.0,88,0.08,,,0.59,meteohub,2013-04-03 14:14:00,
2013-04-03 09:16:00,48.6,45.1,-100.00,NE,45,1.0,10.0,88,0.08,,,0.59,meteohub,2013-04-03 14:16:00,
2013-04-03 09:17:00,48.6,45.1,-100.00,NE,45,1.0,10.0,88,0.08,,,0.59,meteohub,2013-04-03 14:17:00,
2013-04-03 09:18:00,48.7,45.3,-100.00,NNW,338,3.0,10.0,88,0.08,,,0.59,meteohub,2013-04-03 14:18:00,
2013-04-03 09:20:00,48.7,45.3,-100.00,West,270,1.0,3.0,88,0.10,,,0.61,meteohub,2013-04-03 14:20:00,
2013-04-03 09:24:00,48.7,45.7,-100.00,SE,135,0.0,3.0,89,0.10,,,0.61,meteohub,2013-04-03 14:24:00,
2013-04-03 09:26:00,48.7,45.7,-100.00,SSW,203,0.0,3.0,89,0.14,,,0.65,meteohub,2013-04-03 14:26:00,
2013-04-03 09:30:00,48.7,45.7,-100.00,South,180,0.0,3.0,89,0.14,,,0.65,meteohub,2013-04-03 14:30:00,
2013-04-03 09:32:00,48.9,45.9,-100.00,NNE,23,0.0,3.0,89,0.14,,,0.65,meteohub,2013-04-03 14:32:00,
2013-04-03 09:34:00,48.9,45.9,-100.00,NE,45,0.0,3.0,89,0.14,,,0.65,meteohub,2013-04-03 14:34:00,
2013-04-03 09:36:00,48.9,45.9,-100.00,NE,45,4.0,4.0,89,0.14,,,0.65,meteohub,2013-04-03 14:36:00,
2013-04-03 09:40:00,48.9,45.9,-100.00,NE,45,0.0,4.0,89,0.14,,,0.65,meteohub,2013-04-03 14:40:00,
2013-04-03 09:42:00,48.9,45.9,-100.00,ENE,68,2.0,4.0,89,0.14,,,0.65,meteohub,2013-04-03 14:42:00,
2013-04-03 09:44:00,48.9,45.9,-100.00,ESE,113,2.0,4.0,89,0.14,,,0.65,meteohub,2013-04-03 14:44:00,
2013-04-03 09:47:00,48.9,45.9,-100.00,ESE,113,2.0,4.0,89,0.16,,,0.67,meteohub,2013-04-03 14:47:00,
2013-04-03 09:51:00,48.9,45.9,-100.00,ENE,68,4.0,4.0,89,0.16,,,0.67,meteohub,2013-04-03 14:51:00,
2013-04-03 09:53:00,48.9,45.9,-100.00,ENE,68,3.0,4.0,89,0.16,,,0.67,meteohub,2013-04-03 14:53:00,
2013-04-03 09:57:00,48.9,46.0,-100.00,NE,45,2.0,4.0,90,0.14,,,0.67,meteohub,2013-04-03 14:57:00,
2013-04-03 09:59:00,48.9,46.0,-100.00,West,270,0.0,4.0,90,0.14,,,0.67,meteohub,2013-04-03 14:59:00,
2013-04-03 10:03:00,49.1,46.2,-100.00,NE,45,2.0,4.0,90,0.12,,,0.67,meteohub,2013-04-03 15:03:00,
2013-04-03 10:05:00,49.3,46.4,-100.00,NE,45,0.0,4.0,90,0.10,,,0.67,meteohub,2013-04-03 15:05:00,
2013-04-03 10:07:00,49.3,46.4,-100.00,NE,45,3.0,4.0,90,0.10,,,0.67,meteohub,2013-04-03 15:07:00,
2013-04-03 10:11:00,49.6,46.8,-100.00,West,270,0.0,3.0,90,0.08,,,0.67,meteohub,2013-04-03 15:11:00,
2013-04-03 10:13:00,49.8,46.9,-100.00,North,0,1.0,3.0,90,0.08,,,0.67,meteohub,2013-04-03 15:13:00,
2013-04-03 10:15:00,49.8,46.9,-100.00,NNW,338,0.0,3.0,90,0.06,,,0.67,meteohub,2013-04-03 15:15:00,
2013-04-03 10:17:00,49.8,46.9,-100.00,NNW,338,0.0,3.0,90,0.06,,,0.67,meteohub,2013-04-03 15:17:00,
2013-04-03 10:22:00,50.0,47.1,-100.00,NE,45,0.0,3.0,90,0.04,,,0.67,meteohub,2013-04-03 15:22:00,
2013-04-03 10:28:00,50.2,47.3,-100.00,North,0,0.0,2.0,90,0.02,,,0.67,meteohub,2013-04-03 15:28:00,
2013-04-03 10:30:00,50.2,47.3,-100.00,WNW,293,2.0,3.0,90,0.02,,,0.67,meteohub,2013-04-03 15:30:00,
2013-04-03 10:34:00,50.2,47.3,-100.00,NNW,338,0.0,3.0,90,0.02,,,0.67,meteohub,2013-04-03 15:34:00,
2013-04-03 10:37:00,50.2,47.3,-100.00,NNE,23,0.0,3.0,90,0.02,,,0.67,meteohub,2013-04-03 15:37:00,
2013-04-03 10:42:00,50.2,47.3,-100.00,WNW,293,0.0,3.0,90,0.02,,,0.67,meteohub,2013-04-03 15:42:00,
2013-04-03 10:44:00,50.2,47.1,-100.00,NNW,338,4.0,4.0,89,0.02,,,0.67,meteohub,2013-04-03 15:44:00,
2013-04-03 10:48:00,50.2,47.1,-100.00,NE,45,1.0,3.0,89,0.00,,,0.67,meteohub,2013-04-03 15:48:00,
2013-04-03 10:50:00,49.8,46.8,-100.00,NE,45,1.0,4.0,89,0.00,,,0.67,meteohub,2013-04-03 15:50:00,
2013-04-03 10:56:00,49.8,46.8,-100.00,WNW,293,2.0,4.0,89,0.00,,,0.67,meteohub,2013-04-03 15:56:00,
2013-04-03 10:58:00,49.8,46.8,-100.00,SW,225,1.0,4.0,89,0.00,,,0.67,meteohub,2013-04-03 15:58:00,
2013-04-03 11:00:00,49.8,46.8,-100.00,North,0,0.0,2.0,89,0.00,,,0.67,meteohub,2013-04-03 16:00:00,
2013-04-03 11:06:00,49.8,46.8,-100.00,North,0,0.0,2.0,89,0.00,,,0.67,meteohub,2013-04-03 16:06:00,
2013-04-03 11:09:00,49.8,46.4,-100.00,ENE,68,1.0,2.0,88,0.00,,,0.67,meteohub,2013-04-03 16:09:00,
2013-04-03 11:11:00,49.8,46.4,-100.00,NE,45,5.0,5.0,88,0.00,,,0.67,meteohub,2013-04-03 16:11:00,
2013-04-03 11:13:00,49.8,46.4,-100.00,NNW,338,1.0,2.0,88,0.00,,,0.67,meteohub,2013-04-03 16:13:00,
2013-04-03 11:17:00,49.8,46.4,-100.00,ESE,113,2.0,5.0,88,0.00,,,0.67,meteohub,2013-04-03 16:17:00,
2013-04-03 11:19:00,49.8,46.4,-100.00,WNW,293,3.0,5.0,88,0.00,,,0.67,meteohub,2013-04-03 16:19:00,
2013-04-03 11:21:00,49.8,46.4,-100.00,WNW,293,3.0,5.0,88,0.00,,,0.67,meteohub,2013-04-03 16:21:00,
2013-04-03 11:25:00,49.8,46.4,-100.00,NE,45,0.0,5.0,88,0.00,,,0.67,meteohub,2013-04-03 16:25:00,
2013-04-03 11:27:00,49.8,46.4,-100.00,WNW,293,0.0,5.0,88,0.00,,,0.67,meteohub,2013-04-03 16:27:00,
2013-04-03 11:31:00,49.8,46.4,-100.00,North,0,2.0,4.0,88,0.00,,,0.67,meteohub,2013-04-03 16:31:00,
2013-04-03 11:32:00,49.8,46.4,-100.00,North,0,2.0,4.0,88,0.00,,,0.67,meteohub,2013-04-03 16:32:00,
2013-04-03 11:38:00,49.8,46.4,-100.00,ENE,68,2.0,4.0,88,0.00,,,0.67,meteohub,2013-04-03 16:38:00,
2013-04-03 11:40:00,49.6,46.2,-100.00,WNW,293,1.0,4.0,88,0.00,,,0.67,meteohub,2013-04-03 16:40:00,
2013-04-03 11:44:00,49.8,46.4,-100.00,North,0,0.0,4.0,88,0.00,,,0.67,meteohub,2013-04-03 16:44:00,
2013-04-03 11:46:00,49.6,46.2,-100.00,NNW,338,0.0,4.0,88,0.00,,,0.67,meteohub,2013-04-03 16:46:00,
2013-04-03 11:47:00,49.6,46.2,-100.00,NNW,338,0.0,4.0,88,0.00,,,0.67,meteohub,2013-04-03 16:47:00,
2013-04-03 11:53:00,49.8,46.4,-100.00,SW,225,2.0,4.0,88,0.00,,,0.67,meteohub,2013-04-03 16:53:00,
2013-04-03 11:55:00,49.8,46.4,-100.00,West,270,3.0,3.0,88,0.00,,,0.67,meteohub,2013-04-03 16:55:00,
2013-04-03 11:57:00,49.8,46.4,-100.00,NNE,23,2.0,3.0,88,0.00,,,0.67,meteohub,2013-04-03 16:57:00,
2013-04-03 11:59:00,49.6,46.2,-100.00,WSW,248,3.0,3.0,88,0.00,,,0.67,meteohub,2013-04-03 16:59:00,
2013-04-03 12:01:00,49.6,46.2,-100.00,West,270,1.0,3.0,88,0.00,,,0.67,meteohub,2013-04-03 17:01:00,
2013-04-03 12:05:00,49.6,46.2,-100.00,ENE,68,1.0,3.0,88,0.00,,,0.67,meteohub,2013-04-03 17:05:00,
2013-04-03 12:09:00,49.6,46.2,-100.00,NE,45,0.0,3.0,88,0.00,,,0.67,meteohub,2013-04-03 17:09:00,
2013-04-03 12:11:00,49.6,46.2,-100.00,North,0,0.0,3.0,88,0.00,,,0.67,meteohub,2013-04-03 17:11:00,
2013-04-03 12:13:00,49.6,46.2,-100.00,NE,45,0.0,3.0,88,0.00,,,0.67,meteohub,2013-04-03 17:13:00,
2013-04-03 12:17:00,49.6,46.2,-100.00,ENE,68,0.0,3.0,88,0.00,,,0.67,meteohub,2013-04-03 17:17:00,
2013-04-03 12:19:00,49.6,46.2,-100.00,WNW,293,2.0,3.0,88,0.00,,,0.67,meteohub,2013-04-03 17:19:00,
2013-04-03 12:21:00,49.6,45.9,-100.00,West,270,1.0,1.0,87,0.00,,,0.67,meteohub,2013-04-03 17:21:00,
2013-04-03 12:26:00,49.6,46.2,-100.00,WNW,293,1.0,2.0,88,0.00,,,0.67,meteohub,2013-04-03 17:26:00,
2013-04-03 12:30:00,49.6,46.2,-100.00,SSW,203,1.0,2.0,88,0.02,,,0.70,meteohub,2013-04-03 17:30:00,
2013-04-03 12:32:00,49.6,46.2,-100.00,SSW,203,1.0,2.0,88,0.02,,,0.70,meteohub,2013-04-03 17:32:00,
2013-04-03 12:34:00,49.5,46.0,-100.00,NE,45,4.0,4.0,88,0.02,,,0.70,meteohub,2013-04-03 17:34:00,
2013-04-03 12:36:00,49.5,46.0,-100.00,ENE,68,2.0,4.0,88,0.04,,,0.72,meteohub,2013-04-03 17:36:00,
2013-04-03 12:38:00,49.5,46.0,-100.00,NNW,338,1.0,4.0,88,0.04,,,0.72,meteohub,2013-04-03 17:38:00,
2013-04-03 12:40:00,49.6,46.2,-100.00,WNW,293,3.0,4.0,88,0.04,,,0.72,meteohub,2013-04-03 17:40:00,
2013-04-03 12:42:00,49.6,46.2,-100.00,NNE,23,2.0,4.0,88,0.04,,,0.72,meteohub,2013-04-03 17:42:00,
2013-04-03 12:46:00,49.6,46.2,-100.00,East,90,1.0,4.0,88,0.06,,,0.74,meteohub,2013-04-03 17:46:00,
2013-04-03 12:51:00,49.6,46.2,-100.00,WNW,293,4.0,4.0,88,0.06,,,0.74,meteohub,2013-04-03 17:51:00,
2013-04-03 12:53:00,49.6,46.2,-100.00,West,270,2.0,3.0,88,0.06,,,0.74,meteohub,2013-04-03 17:53:00,
2013-04-03 12:55:00,49.6,46.2,-100.00,NNE,23,4.0,4.0,88,0.06,,,0.74,meteohub,2013-04-03 17:55:00,
2013-04-03 12:57:00,49.6,46.2,-100.00,WNW,293,2.0,4.0,88,0.06,,,0.74,meteohub,2013-04-03 17:57:00,
2013-04-03 12:59:00,49.6,46.2,-100.00,NE,45,0.0,4.0,88,0.06,,,0.74,meteohub,2013-04-03 17:59:00,
2013-04-03 13:05:00,49.8,46.4,-100.00,NE,45,2.0,4.0,88,0.08,,,0.76,meteohub,2013-04-03 18:05:00,
2013-04-03 13:07:00,49.8,46.4,-100.00,SW,225,1.0,4.0,88,0.08,,,0.76,meteohub,2013-04-03 18:07:00,
2013-04-03 13:11:00,49.6,46.2,-100.00,North,0,1.0,4.0,88,0.08,,,0.76,meteohub,2013-04-03 18:11:00,
2013-04-03 13:13:00,49.6,46.2,-100.00,West,270,2.0,4.0,88,0.08,,,0.76,meteohub,2013-04-03 18:13:00,
2013-04-03 13:15:00,49.6,46.2,-100.00,WNW,293,3.0,3.0,88,0.08,,,0.76,meteohub,2013-04-03 18:15:00,
2013-04-03 13:17:00,49.6,46.2,-100.00,West,270,2.0,3.0,88,0.08,,,0.76,meteohub,2013-04-03 18:17:00,
2013-04-03 13:21:00,49.6,46.2,-100.00,WSW,248,0.0,3.0,88,0.08,,,0.76,meteohub,2013-04-03 18:21:00,
2013-04-03 13:24:00,49.6,46.2,-100.00,ENE,68,0.0,3.0,88,0.08,,,0.76,meteohub,2013-04-03 18:24:00,
2013-04-03 13:27:00,49.6,46.2,-100.00,NNE,23,2.0,3.0,88,0.06,,,0.76,meteohub,2013-04-03 18:27:00,
2013-04-03 13:29:00,49.6,46.2,-100.00,NW,315,0.0,3.0,88,0.06,,,0.76,meteohub,2013-04-03 18:29:00,
2013-04-03 13:32:00,49.6,46.2,-100.00,North,0,0.0,3.0,88,0.06,,,0.76,meteohub,2013-04-03 18:32:00,
2013-04-03 13:34:00,49.6,46.2,-100.00,ENE,68,2.0,3.0,88,0.06,,,0.76,meteohub,2013-04-03 18:34:00,
2013-04-03 13:38:00,49.8,46.4,-100.00,West,270,2.0,3.0,88,0.04,,,0.76,meteohub,2013-04-03 18:38:00,
2013-04-03 13:40:00,49.6,46.2,-100.00,NNE,23,0.0,3.0,88,0.04,,,0.76,meteohub,2013-04-03 18:40:00,
2013-04-03 13:47:00,49.6,46.2,-100.00,West,270,2.0,3.0,88,0.02,,,0.76,meteohub,2013-04-03 18:47:00,
2013-04-03 13:49:00,49.6,46.2,-100.00,West,270,0.0,3.0,88,0.02,,,0.76,meteohub,2013-04-03 18:49:00,
2013-04-03 13:53:00,49.8,46.4,-100.00,NE,45,1.0,3.0,88,0.02,,,0.76,meteohub,2013-04-03 18:53:00,
2013-04-03 13:59:00,49.8,46.4,-100.00,West,270,2.0,2.0,88,0.02,,,0.76,meteohub,2013-04-03 18:59:00,
2013-04-03 14:02:00,49.8,46.4,-100.00,West,270,4.0,5.0,88,0.00,,,0.76,meteohub,2013-04-03 19:02:00,
2013-04-03 14:03:00,50.0,46.6,-100.00,NW,315,3.0,5.0,88,0.00,,,0.76,meteohub,2013-04-03 19:03:00,
2013-04-03 14:08:00,50.2,46.8,-100.00,SSW,203,1.0,5.0,88,0.00,,,0.76,meteohub,2013-04-03 19:08:00,
2013-04-03 14:12:00,50.2,46.8,-100.00,West,270,2.0,5.0,88,0.00,,,0.76,meteohub,2013-04-03 19:12:00,
2013-04-03 14:14:00,50.2,46.8,-100.00,NNW,338,2.0,5.0,88,0.00,,,0.76,meteohub,2013-04-03 19:14:00,
2013-04-03 14:18:00,50.2,46.4,-100.00,NE,45,0.0,4.0,87,0.00,,,0.76,meteohub,2013-04-03 19:18:00,
2013-04-03 14:20:00,50.0,46.2,-100.00,NNE,23,1.0,4.0,87,0.00,,,0.76,meteohub,2013-04-03 19:20:00,
2013-04-03 14:24:00,50.0,46.2,-100.00,WNW,293,0.0,4.0,87,0.00,,,0.76,meteohub,2013-04-03 19:24:00,
2013-04-03 14:30:00,50.2,46.4,-100.00,SSE,158,2.0,4.0,87,0.00,,,0.76,meteohub,2013-04-03 19:30:00,
2013-04-03 14:32:00,50.2,46.4,-100.00,SSE,158,2.0,4.0,87,0.00,,,0.76,meteohub,2013-04-03 19:32:00,
2013-04-03 14:35:00,49.8,45.9,-100.00,WNW,293,0.0,4.0,86,0.00,,,0.76,meteohub,2013-04-03 19:35:00,
2013-04-03 14:37:00,49.8,45.9,-100.00,WNW,293,0.0,4.0,86,0.00,,,0.76,meteohub,2013-04-03 19:37:00,
2013-04-03 14:41:00,49.8,45.9,-100.00,NNW,338,2.0,4.0,86,0.00,,,0.76,meteohub,2013-04-03 19:41:00,
2013-04-03 14:43:00,49.8,45.9,-100.00,West,270,2.0,4.0,86,0.00,,,0.76,meteohub,2013-04-03 19:43:00,
2013-04-03 14:45:00,49.8,45.9,-100.00,NE,45,0.0,3.0,86,0.00,,,0.76,meteohub,2013-04-03 19:45:00,
2013-04-03 14:47:00,49.8,45.9,-100.00,NE,45,0.0,3.0,86,0.00,,,0.76,meteohub,2013-04-03 19:47:00,
2013-04-03 14:51:00,49.6,45.7,-100.00,North,0,3.0,3.0,86,0.00,,,0.76,meteohub,2013-04-03 19:51:00,
2013-04-03 14:53:00,49.6,45.7,-100.00,West,270,1.0,3.0,86,0.00,,,0.76,meteohub,2013-04-03 19:53:00,
2013-04-03 14:57:00,49.6,45.7,-100.00,WNW,293,1.0,3.0,86,0.00,,,0.76,meteohub,2013-04-03 19:57:00,
2013-04-03 14:59:00,49.6,45.7,-100.00,WNW,293,1.0,3.0,86,0.00,,,0.76,meteohub,2013-04-03 19:59:00,
2013-04-03 15:01:00,49.6,45.7,-100.00,East,90,0.0,3.0,86,0.00,,,0.76,meteohub,2013-04-03 20:01:00,
2013-04-03 15:02:00,49.6,45.7,-100.00,East,90,0.0,3.0,86,0.00,,,0.76,meteohub,2013-04-03 20:02:00,
2013-04-03 15:05:00,49.6,45.7,-100.00,WNW,293,0.0,3.0,86,0.00,,,0.76,meteohub,2013-04-03 20:05:00,
2013-04-03 15:09:00,49.6,45.9,-100.00,NNW,338,1.0,3.0,87,0.00,,,0.76,meteohub,2013-04-03 20:09:00,
2013-04-03 15:11:00,49.8,46.0,-100.00,West,270,4.0,4.0,87,0.00,,,0.76,meteohub,2013-04-03 20:11:00,
2013-04-03 15:16:00,50.2,46.4,-100.00,WNW,293,2.0,4.0,87,0.00,,,0.76,meteohub,2013-04-03 20:16:00,
2013-04-03 15:17:00,50.2,46.4,-100.00,WNW,293,2.0,4.0,87,0.00,,,0.76,meteohub,2013-04-03 20:17:00,
2013-04-03 15:20:00,50.5,46.8,-100.00,WSW,248,4.0,4.0,87,0.00,,,0.76,meteohub,2013-04-03 20:20:00,
2013-04-03 15:22:00,50.7,46.9,-100.00,East,90,0.0,4.0,87,0.00,,,0.76,meteohub,2013-04-03 20:22:00,
2013-04-03 15:24:00,50.7,46.9,-100.00,West,270,4.0,4.0,87,0.00,,,0.76,meteohub,2013-04-03 20:24:00,
2013-04-03 15:29:00,50.7,46.8,-100.00,NW,315,0.0,4.0,86,0.00,,,0.76,meteohub,2013-04-03 20:29:00,
2013-04-03 15:31:00,50.7,46.8,-100.00,ENE,68,0.0,4.0,86,0.00,,,0.76,meteohub,2013-04-03 20:31:00,
2013-04-03 15:37:00,50.7,46.8,-100.00,NNW,338,0.0,4.0,86,0.00,,,0.76,meteohub,2013-04-03 20:37:00,
2013-04-03 15:39:00,50.7,46.8,-100.00,NW,315,1.0,4.0,86,0.00,,,0.76,meteohub,2013-04-03 20:39:00,
2013-04-03 15:42:00,50.7,46.8,-100.00,NW,315,2.0,4.0,86,0.00,,,0.76,meteohub,2013-04-03 20:42:00,
2013-04-03 15:44:00,50.7,46.4,-100.00,ENE,68,2.0,4.0,85,0.00,,,0.76,meteohub,2013-04-03 20:44:00,
2013-04-03 15:47:00,50.7,46.4,-100.00,ENE,68,2.0,2.0,85,0.00,,,0.76,meteohub,2013-04-03 20:47:00,
2013-04-03 15:48:00,50.7,46.4,-100.00,WNW,293,5.0,5.0,85,0.00,,,0.76,meteohub,2013-04-03 20:48:00,
2013-04-03 15:50:00,50.5,46.2,-100.00,WSW,248,3.0,5.0,85,0.00,,,0.76,meteohub,2013-04-03 20:50:00,
2013-04-03 15:54:00,50.5,46.2,-100.00,NW,315,4.0,5.0,85,0.00,,,0.76,meteohub,2013-04-03 20:54:00,
2013-04-03 15:56:00,50.5,46.2,-100.00,SW,225,0.0,5.0,85,0.00,,,0.76,meteohub,2013-04-03 20:56:00,
2013-04-03 16:00:00,50.4,46.0,-100.00,South,180,2.0,5.0,85,0.00,,,0.76,meteohub,2013-04-03 21:00:00,
2013-04-03 16:02:00,50.4,46.0,-100.00,South,180,2.0,5.0,85,0.00,,,0.76,meteohub,2013-04-03 21:02:00,
2013-04-03 16:04:00,50.2,45.9,-100.00,WNW,293,3.0,5.0,85,0.00,,,0.76,meteohub,2013-04-03 21:04:00,
2013-04-03 16:06:00,49.8,45.5,-100.00,NNW,338,1.0,4.0,85,0.00,,,0.76,meteohub,2013-04-03 21:06:00,
2013-04-03 16:11:00,49.8,45.5,-100.00,West,270,4.0,4.0,85,0.02,,,0.78,meteohub,2013-04-03 21:11:00,
2013-04-03 16:17:00,49.6,45.3,-100.00,NW,315,4.0,4.0,85,0.02,,,0.78,meteohub,2013-04-03 21:17:00,
2013-04-03 16:19:00,49.6,45.3,-100.00,NW,315,2.0,4.0,85,0.02,,,0.78,meteohub,2013-04-03 21:19:00,
2013-04-03 16:23:00,49.6,45.3,-100.00,WSW,248,5.0,5.0,85,0.02,,,0.78,meteohub,2013-04-03 21:23:00,
2013-04-03 16:27:00,49.3,45.0,-100.00,WNW,293,2.0,4.0,85,0.02,,,0.78,meteohub,2013-04-03 21:27:00,
2013-04-03 16:29:00,49.3,45.0,-100.00,WNW,293,2.0,4.0,85,0.02,,,0.78,meteohub,2013-04-03 21:29:00,
2013-04-03 16:33:00,49.3,45.0,-100.00,SW,225,4.0,5.0,85,0.02,,,0.78,meteohub,2013-04-03 21:33:00,
2013-04-03 16:35:00,49.3,45.0,-100.00,NW,315,3.0,5.0,85,0.02,,,0.78,meteohub,2013-04-03 21:35:00,
2013-04-03 16:37:00,49.1,44.8,-100.00,WNW,293,1.0,5.0,85,0.02,,,0.78,meteohub,2013-04-03 21:37:00,
2013-04-03 16:44:00,49.1,44.8,-100.00,SW,225,2.0,5.0,85,0.02,,,0.78,meteohub,2013-04-03 21:44:00,
2013-04-03 16:46:00,49.3,45.3,-100.00,NW,315,4.0,5.0,86,0.02,,,0.78,meteohub,2013-04-03 21:46:00,
2013-04-03 16:47:00,49.3,45.3,-100.00,NW,315,4.0,5.0,86,0.02,,,0.78,meteohub,2013-04-03 21:47:00,
2013-04-03 16:50:00,49.3,45.0,-100.00,West,270,3.0,5.0,85,0.02,,,0.78,meteohub,2013-04-03 21:50:00,
2013-04-03 16:52:00,49.3,45.0,-100.00,SSE,158,0.0,4.0,85,0.02,,,0.78,meteohub,2013-04-03 21:52:00,
2013-04-03 16:54:00,49.3,45.0,-100.00,SSW,203,2.0,4.0,85,0.02,,,0.78,meteohub,2013-04-03 21:54:00,
2013-04-03 16:58:00,49.3,45.0,-100.00,WSW,248,2.0,4.0,85,0.02,,,0.78,meteohub,2013-04-03 21:58:00,
2013-04-03 17:00:00,49.3,45.0,-100.00,South,180,3.0,10.0,85,0.02,,,0.78,meteohub,2013-04-03 22:00:00,
2013-04-03 17:06:00,49.3,45.0,-100.00,North,0,3.0,10.0,85,0.02,,,0.78,meteohub,2013-04-03 22:06:00,
2013-04-03 17:08:00,49.3,45.0,-100.00,NE,45,0.0,10.0,85,0.02,,,0.78,meteohub,2013-04-03 22:08:00,
2013-04-03 17:12:00,49.3,45.0,-100.00,NW,315,4.0,10.0,85,0.00,,,0.78,meteohub,2013-04-03 22:12:00,
2013-04-03 17:14:00,49.3,45.0,-100.00,NW,315,3.0,10.0,85,0.00,,,0.78,meteohub,2013-04-03 22:14:00,
2013-04-03 17:16:00,49.3,45.0,-100.00,WNW,293,4.0,4.0,85,0.00,,,0.78,meteohub,2013-04-03 22:16:00,
2013-04-03 17:17:00,49.3,45.0,-100.00,East,90,0.0,4.0,85,0.00,,,0.78,meteohub,2013-04-03 22:17:00,
2013-04-03 17:22:00,49.3,45.0,-100.00,ENE,68,1.0,4.0,85,0.00,,,0.78,meteohub,2013-04-03 22:22:00,
2013-04-03 17:26:00,49.3,45.0,-100.00,WNW,293,4.0,4.0,85,0.00,,,0.78,meteohub,2013-04-03 22:26:00,
2013-04-03 17:28:00,49.3,45.0,-100.00,WNW,293,4.0,4.0,85,0.00,,,0.78,meteohub,2013-04-03 22:28:00,
2013-04-03 17:30:00,49.5,45.1,-100.00,WNW,293,3.0,4.0,85,0.00,,,0.78,meteohub,2013-04-03 22:30:00,
2013-04-03 17:32:00,49.3,45.0,-100.00,WNW,293,3.0,4.0,85,0.00,,,0.78,meteohub,2013-04-03 22:32:00,
2013-04-03 17:34:00,49.3,45.0,-100.00,West,270,0.0,4.0,85,0.00,,,0.78,meteohub,2013-04-03 22:34:00,
2013-04-03 17:37:00,49.3,45.0,-100.00,West,270,2.0,4.0,85,0.00,,,0.78,meteohub,2013-04-03 22:37:00,
2013-04-03 17:38:00,49.3,45.0,-100.00,South,180,1.0,4.0,85,0.00,,,0.78,meteohub,2013-04-03 22:38:00,
2013-04-03 17:44:00,49.3,45.0,-100.00,WNW,293,1.0,4.0,85,0.00,,,0.78,meteohub,2013-04-03 22:44:00,
2013-04-03 17:49:00,49.3,45.0,-100.00,North,0,1.0,3.0,85,0.00,,,0.78,meteohub,2013-04-03 22:49:00,
2013-04-03 17:53:00,49.3,45.0,-100.00,West,270,3.0,3.0,85,0.00,,,0.78,meteohub,2013-04-03 22:53:00,
2013-04-03 17:55:00,49.3,45.0,-100.00,West,270,2.0,4.0,85,0.00,,,0.78,meteohub,2013-04-03 22:55:00,
2013-04-03 17:59:00,49.1,44.8,-100.00,West,270,3.0,4.0,85,0.00,,,0.78,meteohub,2013-04-03 22:59:00,
2013-04-03 18:02:00,49.3,45.0,-100.00,West,270,4.0,4.0,85,0.00,,,0.78,meteohub,2013-04-03 23:02:00,
2013-04-03 18:06:00,49.3,45.0,-100.00,ENE,68,2.0,4.0,85,0.00,,,0.78,meteohub,2013-04-03 23:06:00,
2013-04-03 18:08:00,49.1,44.8,-100.00,West,270,1.0,4.0,85,0.00,,,0.78,meteohub,2013-04-03 23:08:00,
2013-04-03 18:12:00,49.1,44.8,-100.00,WNW,293,4.0,4.0,85,0.00,,,0.78,meteohub,2013-04-03 23:12:00,
2013-04-03 18:14:00,49.1,44.8,-100.00,WSW,248,1.0,4.0,85,0.00,,,0.78,meteohub,2013-04-03 23:14:00,
2013-04-03 18:17:00,49.1,44.8,-100.00,ENE,68,5.0,5.0,85,0.00,,,0.78,meteohub,2013-04-03 23:17:00,
2013-04-03 18:20:00,48.9,44.6,-100.00,SW,225,0.0,5.0,85,0.00,,,0.78,meteohub,2013-04-03 23:20:00,
2013-04-03 18:22:00,49.1,44.8,-100.00,West,270,0.0,5.0,85,0.00,,,0.78,meteohub,2013-04-03 23:22:00,
2013-04-03 18:26:00,48.9,44.6,-100.00,NE,45,2.0,5.0,85,0.00,,,0.78,meteohub,2013-04-03 23:26:00,
2013-04-03 18:28:00,48.9,44.6,-100.00,ENE,68,1.0,5.0,85,0.00,,,0.78,meteohub,2013-04-03 23:28:00,
2013-04-03 18:32:00,48.9,44.6,-100.00,NE,45,2.0,5.0,85,0.00,,,0.78,meteohub,2013-04-03 23:32:00,
2013-04-03 18:34:00,48.7,44.4,-100.00,NE,45,2.0,5.0,85,0.00,,,0.78,meteohub,2013-04-03 23:34:00,
2013-04-03 18:36:00,48.7,44.4,-100.00,NE,45,2.0,2.0,85,0.00,,,0.78,meteohub,2013-04-03 23:36:00,
2013-04-03 18:38:00,48.7,44.4,-100.00,West,270,3.0,3.0,85,0.00,,,0.78,meteohub,2013-04-03 23:38:00,
2013-04-03 18:44:00,48.7,44.4,-100.00,ENE,68,0.0,3.0,85,0.00,,,0.78,meteohub,2013-04-03 23:44:00,
2013-04-03 18:46:00,48.7,44.4,-100.00,WSW,248,1.0,3.0,85,0.00,,,0.78,meteohub,2013-04-03 23:46:00,
2013-04-03 18:47:00,48.7,44.4,-100.00,WSW,248,1.0,3.0,85,0.00,,,0.78,meteohub,2013-04-03 23:47:00,
2013-04-03 18:49:00,48.6,44.2,-100.00,WNW,293,0.0,3.0,85,0.00,,,0.78,meteohub,2013-04-03 23:49:00,
2013-04-03 18:55:00,48.6,44.2,-100.00,NE,45,3.0,3.0,85,0.00,,,0.78,meteohub,2013-04-03 23:55:00,
2013-04-03 18:57:00,48.7,44.4,-100.00,NNW,338,2.0,2.0,85,0.00,,,0.78,meteohub,2013-04-03 23:57:00,
2013-04-03 18:59:00,48.6,44.2,-100.00,NNW,338,4.0,4.0,85,0.00,,,0.78,meteohub,2013-04-03 23:59:00,
2013-04-03 19:01:00,48.6,44.6,-100.00,North,0,0.0,4.0,86,0.00,,,0.78,meteohub,2013-04-04 00:01:00,
2013-04-03 19:02:00,48.6,44.6,-100.00,North,0,0.0,4.0,86,0.00,,,0.78,meteohub,2013-04-04 00:02:00,
2013-04-03 19:03:00,48.6,44.2,-100.00,North,0,0.0,4.0,85,0.00,,,0.78,meteohub,2013-04-04 00:03:00,
2013-04-03 19:07:00,48.6,44.6,-100.00,WNW,293,4.0,4.0,86,0.00,,,0.00,meteohub,2013-04-04 00:07:00,
2013-04-03 19:09:00,48.6,44.2,-100.00,WNW,293,0.0,4.0,85,0.00,,,0.00,meteohub,2013-04-04 00:09:00,
2013-04-03 19:11:00,48.6,44.6,-100.00,WNW,293,2.0,4.0,86,0.00,,,0.00,meteohub,2013-04-04 00:11:00,
2013-04-03 19:16:00,48.4,44.1,-100.00,WNW,293,1.0,4.0,85,0.00,,,0.00,meteohub,2013-04-04 00:16:00,
2013-04-03 19:17:00,48.4,44.1,-100.00,WNW,293,1.0,4.0,85,0.00,,,0.00,meteohub,2013-04-04 00:17:00,
2013-04-03 19:22:00,48.4,44.1,-100.00,West,270,2.0,4.0,85,0.00,,,0.00,meteohub,2013-04-04 00:22:00,
2013-04-03 19:24:00,48.2,43.9,-100.00,NW,315,0.0,4.0,85,0.00,,,0.00,meteohub,2013-04-04 00:24:00,
2013-04-03 19:28:00,48.4,44.1,-100.00,NW,315,2.0,3.0,85,0.00,,,0.00,meteohub,2013-04-04 00:28:00,
2013-04-03 19:32:00,48.2,43.9,-100.00,NE,45,0.0,3.0,85,0.00,,,0.00,meteohub,2013-04-04 00:32:00,
2013-04-03 19:38:00,48.2,43.9,-100.00,NW,315,2.0,3.0,85,0.00,,,0.00,meteohub,2013-04-04 00:38:00,
2013-04-03 19:42:00,48.4,44.1,-100.00,WNW,293,4.0,4.0,85,0.00,,,0.00,meteohub,2013-04-04 00:42:00,
2013-04-03 19:44:00,48.2,43.9,-100.00,WNW,293,0.0,2.0,85,0.00,,,0.00,meteohub,2013-04-04 00:44:00,
2013-04-03 19:46:00,48.0,43.7,-100.00,WSW,248,0.0,4.0,85,0.00,,,0.00,meteohub,2013-04-04 00:46:00,
2013-04-03 19:48:00,48.0,43.7,-100.00,NNW,338,0.0,4.0,85,0.00,,,0.00,meteohub,2013-04-04 00:48:00,
2013-04-03 19:52:00,48.0,43.7,-100.00,NE,45,0.0,4.0,85,0.00,,,0.00,meteohub,2013-04-04 00:52:00,
2013-04-03 19:54:00,48.0,43.7,-100.00,North,0,0.0,4.0,85,0.00,,,0.00,meteohub,2013-04-04 00:54:00,
2013-04-03 19:56:00,48.0,43.7,-100.00,NW,315,1.0,4.0,85,0.00,,,0.00,meteohub,2013-04-04 00:56:00,
2013-04-03 20:02:00,48.0,43.7,-100.00,NNE,23,0.0,1.0,85,0.00,,,0.00,meteohub,2013-04-04 01:02:00,
2013-04-03 20:03:00,48.2,43.9,-100.00,North,0,0.0,1.0,85,0.00,,,0.00,meteohub,2013-04-04 01:03:00,
2013-04-03 20:09:00,48.0,43.7,-100.00,NE,45,0.0,1.0,85,0.00,,,0.00,meteohub,2013-04-04 01:09:00,
2013-04-03 20:11:00,48.0,43.7,-100.00,North,0,1.0,1.0,85,0.00,,,0.00,meteohub,2013-04-04 01:11:00,
2013-04-03 20:15:00,48.0,43.7,-100.00,NE,45,0.0,1.0,85,0.00,,,0.00,meteohub,2013-04-04 01:15:00,
2013-04-03 20:17:00,48.0,43.7,-100.00,NE,45,0.0,1.0,85,0.00,,,0.00,meteohub,2013-04-04 01:17:00,
2013-04-03 20:21:00,48.0,43.7,-100.00,NNE,23,0.0,2.0,85,0.00,,,0.00,meteohub,2013-04-04 01:21:00,
2013-04-03 20:28:00,48.0,43.7,-100.00,NE,45,2.0,2.0,85,0.00,,,0.00,meteohub,2013-04-04 01:28:00,
2013-04-03 20:32:00,48.0,43.7,-100.00,WSW,248,1.0,2.0,85,0.00,,,0.00,meteohub,2013-04-04 01:32:00,
2013-04-03 20:34:00,48.0,43.7,-100.00,WNW,293,1.0,2.0,85,0.00,,,0.00,meteohub,2013-04-04 01:34:00,
2013-04-03 20:40:00,48.0,43.7,-100.00,North,0,0.0,2.0,85,0.00,,,0.00,meteohub,2013-04-04 01:40:00,
2013-04-03 20:42:00,48.0,43.7,-100.00,North,0,0.0,2.0,85,0.00,,,0.00,meteohub,2013-04-04 01:42:00,
2013-04-03 20:46:00,48.0,43.7,-100.00,NNW,338,0.0,2.0,85,0.00,,,0.00,meteohub,2013-04-04 01:46:00,
2013-04-03 20:47:00,48.0,43.7,-100.00,NE,45,2.0,2.0,85,0.00,,,0.00,meteohub,2013-04-04 01:47:00,
2013-04-03 20:49:00,48.0,43.7,-100.00,NE,45,2.0,2.0,85,0.00,,,0.00,meteohub,2013-04-04 01:49:00,
2013-04-03 20:52:00,48.0,43.7,-100.00,NE,45,0.0,2.0,85,0.00,,,0.00,meteohub,2013-04-04 01:52:00,
2013-04-03 20:54:00,48.0,43.7,-100.00,ENE,68,0.0,2.0,85,0.00,,,0.00,meteohub,2013-04-04 01:54:00,
2013-04-03 20:56:00,48.0,43.7,-100.00,ENE,68,0.0,2.0,85,0.00,,,0.00,meteohub,2013-04-04 01:56:00,
2013-04-03 21:01:00,48.0,43.7,-100.00,NNE,23,0.0,2.0,85,0.00,,,0.00,meteohub,2013-04-04 02:01:00,
2013-04-03 21:02:00,48.0,43.7,-100.00,NNE,23,0.0,2.0,85,0.00,,,0.00,meteohub,2013-04-04 02:02:00,
2013-04-03 21:03:00,48.0,43.7,-100.00,NW,315,0.0,2.0,85,0.00,,,0.00,meteohub,2013-04-04 02:03:00,
2013-04-03 21:09:00,48.0,43.7,-100.00,ENE,68,2.0,2.0,85,0.00,,,0.00,meteohub,2013-04-04 02:09:00,
2013-04-03 21:11:00,48.0,43.7,-100.00,NNW,338,0.0,2.0,85,0.00,,,0.00,meteohub,2013-04-04 02:11:00,
2013-04-03 21:13:00,48.0,43.7,-100.00,NE,45,4.0,4.0,85,0.00,,,0.00,meteohub,2013-04-04 02:13:00,
2013-04-03 21:15:00,47.8,43.5,-100.00,WNW,293,2.0,4.0,85,0.00,,,0.00,meteohub,2013-04-04 02:15:00,
2013-04-03 21:19:00,48.0,43.7,-100.00,NW,315,0.0,4.0,85,0.00,,,0.00,meteohub,2013-04-04 02:19:00,
2013-04-03 21:25:00,48.0,43.7,-100.00,NE,45,1.0,4.0,85,0.00,,,0.00,meteohub,2013-04-04 02:25:00,
2013-04-03 21:29:00,48.0,43.7,-100.00,West,270,1.0,4.0,85,0.00,,,0.00,meteohub,2013-04-04 02:29:00,
2013-04-03 21:31:00,48.0,43.7,-100.00,West,270,2.0,2.0,85,0.00,,,0.00,meteohub,2013-04-04 02:31:00,
2013-04-03 21:34:00,48.0,43.7,-100.00,West,270,2.0,2.0,85,0.00,,,0.00,meteohub,2013-04-04 02:34:00,
2013-04-03 21:40:00,48.0,43.7,-100.00,NW,315,2.0,2.0,85,0.00,,,0.00,meteohub,2013-04-04 02:40:00,
2013-04-03 21:42:00,48.0,43.7,-100.00,NW,315,1.0,2.0,85,0.00,,,0.00,meteohub,2013-04-04 02:42:00,
2013-04-03 21:44:00,48.0,43.7,-100.00,NNE,23,2.0,2.0,85,0.00,,,0.00,meteohub,2013-04-04 02:44:00,
2013-04-03 21:48:00,47.8,43.5,-100.00,NNE,23,0.0,2.0,85,0.00,,,0.00,meteohub,2013-04-04 02:48:00,
2013-04-03 21:50:00,47.8,43.5,-100.00,NW,315,3.0,3.0,85,0.00,,,0.00,meteohub,2013-04-04 02:50:00,
2013-04-03 21:52:00,47.8,43.5,-100.00,SE,135,1.0,2.0,85,0.00,,,0.00,meteohub,2013-04-04 02:52:00,
2013-04-03 21:59:00,47.8,43.5,-100.00,NNE,23,1.0,3.0,85,0.00,,,0.00,meteohub,2013-04-04 02:59:00,
2013-04-03 22:02:00,47.8,43.9,-100.00,NE,45,0.0,3.0,86,0.00,,,0.00,meteohub,2013-04-04 03:02:00,
2013-04-03 22:07:00,47.8,43.9,-100.00,ENE,68,0.0,3.0,86,0.00,,,0.00,meteohub,2013-04-04 03:07:00,
2013-04-03 22:11:00,47.8,43.9,-100.00,NNE,23,0.0,1.0,86,0.00,,,0.00,meteohub,2013-04-04 03:11:00,
2013-04-03 22:13:00,47.8,43.9,-100.00,NE,45,0.0,1.0,86,0.00,,,0.00,meteohub,2013-04-04 03:13:00,
2013-04-03 22:17:00,47.8,43.9,-100.00,WNW,293,0.0,0.0,86,0.00,,,0.00,meteohub,2013-04-04 03:17:00,
2013-04-03 22:19:00,48.0,44.1,-100.00,North,0,0.0,0.0,86,0.00,,,0.00,meteohub,2013-04-04 03:19:00,
2013-04-03 22:22:00,47.8,43.9,-100.00,NNW,338,1.0,0.0,86,0.00,,,0.00,meteohub,2013-04-04 03:22:00,
2013-04-03 22:24:00,47.8,43.9,-100.00,East,90,0.0,0.0,86,0.00,,,0.00,meteohub,2013-04-04 03:24:00,
2013-04-03 22:28:00,47.8,43.9,-100.00,WNW,293,0.0,1.0,86,0.00,,,0.00,meteohub,2013-04-04 03:28:00,
2013-04-03 22:30:00,47.8,43.9,-100.00,NE,45,1.0,2.0,86,0.00,,,0.00,meteohub,2013-04-04 03:30:00,
2013-04-03 22:32:00,47.8,43.9,-100.00,NE,45,1.0,2.0,86,0.00,,,0.00,meteohub,2013-04-04 03:32:00,
2013-04-03 22:36:00,47.8,43.9,-100.00,NNE,23,0.0,2.0,86,0.00,,,0.00,meteohub,2013-04-04 03:36:00,
2013-04-03 22:40:00,47.5,43.5,-100.00,WNW,293,2.0,2.0,86,0.00,,,0.00,meteohub,2013-04-04 03:40:00,
2013-04-03 22:42:00,47.5,43.5,-100.00,NNW,338,1.0,2.0,86,0.00,,,0.00,meteohub,2013-04-04 03:42:00,
2013-04-03 22:46:00,47.5,43.5,-100.00,NE,45,0.0,2.0,86,0.00,,,0.00,meteohub,2013-04-04 03:46:00,
2013-04-03 22:47:00,47.5,43.5,-100.00,NNE,23,4.0,4.0,86,0.00,,,0.00,meteohub,2013-04-04 03:47:00,
2013-04-03 22:52:00,47.5,43.5,-100.00,NE,45,0.0,4.0,86,0.00,,,0.00,meteohub,2013-04-04 03:52:00,
2013-04-03 22:54:00,47.5,43.5,-100.00,NW,315,0.0,4.0,86,0.00,,,0.00,meteohub,2013-04-04 03:54:00,
2013-04-03 22:56:00,47.5,43.5,-100.00,NNW,338,0.0,4.0,86,0.00,,,0.00,meteohub,2013-04-04 03:56:00,
2013-04-03 22:58:00,47.5,43.5,-100.00,North,0,1.0,4.0,86,0.00,,,0.00,meteohub,2013-04-04 03:58:00,
2013-04-03 23:00:00,47.5,43.5,-100.00,WNW,293,0.0,4.0,86,0.00,,,0.00,meteohub,2013-04-04 04:00:00,
2013-04-03 23:02:00,47.5,43.5,-100.00,NNW,338,0.0,4.0,86,0.00,,,0.00,meteohub,2013-04-04 04:02:00,
2013-04-03 23:06:00,47.5,43.5,-100.00,NE,45,1.0,3.0,86,0.00,,,0.00,meteohub,2013-04-04 04:06:00,
2013-04-03 23:11:00,47.5,43.5,-100.00,WNW,293,1.0,1.0,86,0.00,,,0.00,meteohub,2013-04-04 04:11:00,
2013-04-03 23:13:00,47.5,43.5,-100.00,WNW,293,1.0,1.0,86,0.00,,,0.00,meteohub,2013-04-04 04:13:00,
2013-04-03 23:17:00,47.5,43.5,-100.00,WNW,293,1.0,4.0,86,0.00,,,0.00,meteohub,2013-04-04 04:17:00,
2013-04-03 23:21:00,47.5,43.2,-100.00,NE,45,0.0,4.0,85,0.00,,,0.00,meteohub,2013-04-04 04:21:00,
2013-04-03 23:23:00,47.5,43.2,-100.00,NE,45,2.0,4.0,85,0.00,,,0.00,meteohub,2013-04-04 04:23:00,
2013-04-03 23:27:00,47.5,43.2,-100.00,NNE,23,0.0,1.0,85,0.00,,,0.00,meteohub,2013-04-04 04:27:00,
2013-04-03 23:29:00,47.5,43.2,-100.00,ESE,113,0.0,1.0,85,0.00,,,0.00,meteohub,2013-04-04 04:29:00,
2013-04-03 23:32:00,47.3,43.0,-100.00,NE,45,0.0,2.0,85,0.00,,,0.00,meteohub,2013-04-04 04:32:00,
2013-04-03 23:34:00,47.1,42.8,-100.00,NE,45,0.0,2.0,85,0.00,,,0.00,meteohub,2013-04-04 04:34:00,
2013-04-03 23:35:00,47.1,42.8,-100.00,NE,45,0.0,2.0,85,0.00,,,0.00,meteohub,2013-04-04 04:35:00,
2013-04-03 23:39:00,47.1,42.8,-100.00,North,0,1.0,2.0,85,0.00,,,0.00,meteohub,2013-04-04 04:39:00,
2013-04-03 23:42:00,47.1,42.8,-100.00,WNW,293,3.0,3.0,85,0.00,,,0.00,meteohub,2013-04-04 04:42:00,
2013-04-03 23:46:00,47.1,42.8,-100.00,NE,45,2.0,3.0,85,0.00,,,0.00,meteohub,2013-04-04 04:46:00,
2013-04-03 23:47:00,47.1,42.8,-100.00,SW,225,2.0,3.0,85,0.00,,,0.00,meteohub,2013-04-04 04:47:00,
2013-04-03 23:48:00,47.1,42.8,-100.00,SW,225,2.0,3.0,85,0.00,,,0.00,meteohub,2013-04-04 04:48:00,
2013-04-03 23:52:00,46.9,42.6,-100.00,NW,315,1.0,3.0,85,0.00,,,0.00,meteohub,2013-04-04 04:52:00,
2013-04-03 23:58:00,46.9,42.6,-100.00,NNW,338,2.0,3.0,85,0.00,,,0.00,meteohub,2013-04-04 04:58:00,